Weather History for Crestview, FL

Change the Weather History Date:

Sunday, January 5, 2014

  Actual Average Record
Temperature  
Mean Temperature 52 °F -  
Max Temperature 62 °F - - ()
Min Temperature 42 °F - - ()
Degree Days  
Heating Degree Days 13    
Growing Degree Days 2 (Base 50)    
Moisture  
Dew Point 55 °F    
Average Humidity 90    
Maximum Humidity 100    
Minimum Humidity 69    
Precipitation  
Precipitation 0.14 in - - ()
Sea Level Pressure  
Sea Level Pressure 29.95 in    
Wind  
Wind Speed 6 mph (SSE)    
Max Wind Speed 25 mph    
Max Gust Speed 32 mph    
Visibility 9 miles    
Events Rain    
T = Trace of Precipitation, MM = Missing Value Source: NWS Daily Summary

Daily Weather History Graph

Daily Weather History Graph

Search for Another Location

Airport:

Trip Planner

Search our weather history database for the weather conditions in past years. The results will help you decide how hot, cold, wet, or windy it might be!

Date:

Astronomy

Jan. 05, 2014 Rise Set
Actual Time 6:44 AM CST 4:59 PM CST
Civil Twilight 6:17 AM CST 5:25 PM CST
Nautical Twilight 5:47 AM CST 5:55 PM CST
Astronomical Twilight 5:18 AM CST 6:24 PM CST
Moon 9:46 AM CST (1/5) 10:02 PM CST (1/5)
Length of Visible Light 11h 07m
Length of Day
10h 14m
Waxing Crescent, 25% of the Moon is Illuminated
Jan 5
Waxing Crescent
Jan 7
First Quarter
Jan 15
Full
Jan 23
Last Quarter
Jan 30
New

Hourly Weather History & Observations

Time (CST) Temp. Windchill Dew Point Humidity Pressure Visibility Wind Dir Wind Speed Gust Speed Precip Events Conditions
12:58 AM 42.4 °F - 36.1 °F 78% 30.09 in 10.0 mi NE 2.3 mph - N/A   Mostly Cloudy
1:58 AM 42.4 °F 39.6 °F 37.6 °F 83% 30.07 in 10.0 mi ENE 4.6 mph - N/A   Overcast
2:58 AM 44.2 °F 42.7 °F 37.9 °F 79% 30.08 in 10.0 mi NNW 3.5 mph - N/A   Overcast
3:58 AM 43.5 °F - 38.8 °F 84% 30.07 in 10.0 mi Calm Calm - N/A   Overcast
4:58 AM 45.7 °F 42.7 °F 39.9 °F 80% 30.05 in 10.0 mi East 5.8 mph - N/A   Overcast
5:58 AM 46.6 °F - 40.5 °F 79% 30.05 in 10.0 mi East 4.6 mph - N/A   Overcast
6:58 AM 46.6 °F - 41.2 °F 81% 30.05 in 10.0 mi ENE 4.6 mph - N/A   Mostly Cloudy
7:23 AM 48.2 °F - 41.0 °F 76% 30.05 in 10.0 mi ENE 4.6 mph - N/A   Mostly Cloudy
7:58 AM 48.9 °F - 42.4 °F 78% 30.06 in 10.0 mi East 5.8 mph - N/A   Mostly Cloudy
8:18 AM 50.0 °F - 42.8 °F 76% 30.05 in 10.0 mi ENE 5.8 mph - N/A   Mostly Cloudy
8:58 AM 54.1 °F - 45.1 °F 72% 30.07 in 10.0 mi East 5.8 mph - N/A   Scattered Clouds
9:53 AM 55.4 °F - 46.4 °F 72% 30.04 in 10.0 mi ESE 5.8 mph - N/A   Mostly Cloudy
9:58 AM 55.4 °F - 46.4 °F 72% 30.05 in 10.0 mi East 5.8 mph - N/A   Mostly Cloudy
10:03 AM 55.4 °F - 46.4 °F 72% 30.04 in 10.0 mi East 4.6 mph - N/A   Mostly Cloudy
10:33 AM 57.2 °F - 48.2 °F 72% 30.03 in 10.0 mi ENE 2.3 mph - N/A   Overcast
10:58 AM 59.7 °F - 49.5 °F 69% 30.02 in 10.0 mi Variable 2.3 mph - N/A   Overcast
11:58 AM 60.8 °F - 52.5 °F 74% 29.98 in 10.0 mi SE 4.6 mph - N/A   Overcast
12:58 PM 60.6 °F - 53.6 °F 78% 29.96 in 10.0 mi South 4.6 mph - N/A   Overcast
1:58 PM 62.8 °F - 55.6 °F 77% 29.95 in 10.0 mi South 3.5 mph - N/A   Overcast
2:13 PM 62.6 °F - 55.4 °F 77% 29.94 in 10.0 mi NW 6.9 mph - N/A Rain Light Rain
2:32 PM 60.8 °F - 59.0 °F 94% 29.92 in 10.0 mi East 5.8 mph - N/A   Overcast
2:57 PM 62.6 °F - 59.0 °F 88% 29.92 in 10.0 mi SSE 9.2 mph - N/A   Overcast
2:58 PM 62.6 °F - 59.0 °F 88% 29.93 in 10.0 mi South 9.2 mph - 0.00 in   Overcast
3:33 PM 62.6 °F - 59.0 °F 88% 29.92 in 10.0 mi South 8.1 mph - N/A   Scattered Clouds
3:43 PM 62.6 °F - 59.0 °F 88% 29.92 in 10.0 mi South 9.2 mph - N/A   Mostly Cloudy
3:48 PM 62.6 °F - 59.0 °F 88% 29.92 in 10.0 mi SSE 9.2 mph - N/A   Mostly Cloudy
3:58 PM 62.6 °F - 58.8 °F 87% 29.94 in 10.0 mi South 8.1 mph - N/A   Mostly Cloudy
4:03 PM 62.6 °F - 59.0 °F 88% 29.93 in 10.0 mi South 8.1 mph - N/A   Mostly Cloudy
4:08 PM 62.6 °F - 59.0 °F 88% 29.92 in 10.0 mi South 6.9 mph - N/A   Mostly Cloudy
4:18 PM 62.6 °F - 59.0 °F 88% 29.93 in 10.0 mi South 8.1 mph - N/A   Mostly Cloudy
4:36 PM 60.8 °F - 59.0 °F 94% 29.93 in 10.0 mi South 8.1 mph - N/A Rain Light Rain
4:39 PM 60.8 °F - 60.8 °F 100% 29.92 in 10.0 mi South 8.1 mph - N/A Rain Light Rain
4:58 PM 61.2 °F - 60.4 °F 97% 29.93 in 10.0 mi South 9.2 mph - 0.00 in   Light Drizzle
5:00 PM 60.8 °F - 60.8 °F 100% 29.92 in 10.0 mi South 8.1 mph - N/A   Mostly Cloudy
5:04 PM 60.8 °F - 60.8 °F 100% 29.92 in 9.0 mi South 6.9 mph - N/A Rain Light Rain
5:17 PM 60.8 °F - 60.8 °F 100% 29.93 in 10.0 mi WNW 6.9 mph - N/A   Mostly Cloudy
5:27 PM 60.8 °F - 60.8 °F 100% 29.92 in 10.0 mi South 3.5 mph - N/A   Mostly Cloudy
5:32 PM 60.8 °F - 60.8 °F 100% 29.92 in 10.0 mi South 3.5 mph - N/A   Mostly Cloudy
5:35 PM 60.8 °F - 60.8 °F 100% 29.92 in 10.0 mi South 2.3 mph - N/A   Mostly Cloudy
5:58 PM 59.2 °F - 59.0 °F 99% 29.93 in 5.0 mi SSE 3.5 mph - 0.00 in   Mostly Cloudy
6:58 PM 58.8 °F - 58.5 °F 99% 29.92 in 4.0 mi South 4.6 mph - N/A   Overcast
7:58 PM 59.5 °F - 59.4 °F 99% 29.90 in 10.0 mi South 8.1 mph - N/A   Partly Cloudy
8:58 PM 59.4 °F - 59.0 °F 99% 29.90 in 10.0 mi South 9.2 mph - N/A   Partly Cloudy
9:58 PM 58.6 °F - 58.3 °F 99% 29.89 in 9.0 mi South 9.2 mph - N/A   Partly Cloudy
10:35 PM 60.8 °F - 60.8 °F 100% 29.87 in 10.0 mi South 8.1 mph - N/A   Light Drizzle
10:51 PM 60.8 °F - 60.8 °F 100% 29.86 in 10.0 mi South 9.2 mph - N/A   Mostly Cloudy
10:54 PM 60.8 °F - 60.8 °F 100% 29.86 in 10.0 mi South 9.2 mph - N/A Rain Light Rain
10:58 PM 60.8 °F - 60.8 °F 100% 29.87 in 10.0 mi South 9.2 mph - 0.00 in Rain Light Rain
11:08 PM 60.8 °F - 60.8 °F 100% 29.86 in 2.5 mi South 10.4 mph - N/A Rain Heavy Rain
11:13 PM 60.8 °F - 60.8 °F 100% 29.87 in 2.5 mi West 11.5 mph - N/A Rain Light Rain
11:18 PM 62.6 °F - 62.6 °F 100% 29.88 in 3.0 mi West 11.5 mph - N/A Rain Light Rain
11:23 PM 62.6 °F - 62.6 °F 100% 29.88 in 3.0 mi West 12.7 mph - N/A Rain Light Rain
11:28 PM 62.6 °F - 62.6 °F 100% 29.88 in 8.0 mi West 12.7 mph 19.6 mph N/A   Light Drizzle
11:33 PM 62.6 °F - 62.6 °F 100% 29.88 in 10.0 mi WNW 16.1 mph 20.7 mph N/A   Light Drizzle
11:38 PM 62.6 °F - 62.6 °F 100% 29.88 in 8.0 mi NW 25.3 mph 32.2 mph N/A Rain Light Rain
11:47 PM 57.2 °F - 57.2 °F 100% 29.90 in 10.0 mi NW 17.3 mph 26.5 mph N/A   Overcast
11:52 PM 55.4 °F - 55.4 °F 100% 29.91 in 10.0 mi NW 18.4 mph 24.2 mph N/A   Overcast
11:57 PM 55.4 °F - 55.4 °F 100% 29.91 in 10.0 mi NW 20.7 mph 26.5 mph N/A   Overcast
11:58 PM 55.4 °F - 55.4 °F 100% 29.92 in 10.0 mi NW 21.9 mph 28.8 mph 0.14 in   Overcast